TimeEDT,TemperatureF,Dew PointF,Humidity,Sea Level PressureIn,VisibilityMPH,Wind Direction,Wind SpeedMPH,Gust SpeedMPH,PrecipitationIn,Events,Conditions,WindDirDegrees,DateUTC
12:56 AM,51.1,46.9,86,30.29,10.0,NE,5.8,-,N/A,,Clear,40,2013-04-26 04:56:00
1:56 AM,48.9,45.0,86,30.29,10.0,NNE,3.5,-,N/A,,Clear,30,2013-04-26 05:56:00
2:56 AM,48.9,45.0,86,30.30,10.0,Calm,Calm,-,N/A,,Clear,0,2013-04-26 06:56:00
3:56 AM,48.0,43.0,83,30.30,10.0,NNE,4.6,-,N/A,,Clear,20,2013-04-26 07:56:00
5:56 AM,45.0,42.1,90,30.32,10.0,Calm,Calm,-,N/A,,Clear,0,2013-04-26 09:56:00
6:56 AM,45.0,42.1,90,30.35,9.0,North,4.6,-,N/A,,Clear,10,2013-04-26 10:56:00
8:56 AM,54.0,45.0,72,30.39,10.0,NNE,9.2,-,N/A,,Clear,30,2013-04-26 12:56:00
10:56 AM,66.0,39.9,38,30.42,10.0,NE,10.4,-,N/A,,Clear,40,2013-04-26 14:56:00
11:56 AM,69.1,41.0,36,30.42,10.0,NNE,11.5,-,N/A,,Clear,30,2013-04-26 15:56:00
12:56 PM,70.0,39.0,32,30.40,10.0,ENE,10.4,-,N/A,,Clear,60,2013-04-26 16:56:00
1:56 PM,71.1,37.9,30,30.37,10.0,ENE,6.9,-,N/A,,Clear,60,2013-04-26 17:56:00
3:56 PM,70.0,42.1,36,30.36,10.0,SE,13.8,-,N/A,,Clear,140,2013-04-26 19:56:00
4:56 PM,69.1,41.0,36,30.35,10.0,SE,12.7,-,N/A,,Clear,140,2013-04-26 20:56:00
5:56 PM,66.0,43.0,43,30.35,10.0,SE,12.7,-,N/A,,Clear,140,2013-04-26 21:56:00
6:56 PM,64.0,39.9,41,30.35,10.0,SE,11.5,-,N/A,,Clear,130,2013-04-26 22:56:00
7:56 PM,61.0,39.9,46,30.37,10.0,SE,8.1,-,N/A,,Clear,140,2013-04-26 23:56:00
8:56 PM,60.1,44.1,55,30.40,10.0,ESE,8.1,-,N/A,,Clear,110,2013-04-27 00:56:00
9:56 PM,57.9,45.0,62,30.42,10.0,ESE,4.6,-,N/A,,Clear,110,2013-04-27 01:56:00
10:56 PM,57.9,43.0,58,30.41,10.0,East,5.8,-,N/A,,Clear,90,2013-04-27 02:56:00
11:56 PM,55.9,44.1,64,30.41,10.0,East,5.8,-,N/A,,Clear,80,2013-04-27 03:56:00